Wind_Speed
51 50 49 48 46 45 47 45 43 41 39 37 33 34 30 31 31 27 24 23 20 24 27 28 29 30 27 22 21 21 21 22 20 16 18 20 19 20 20 22 22 19 23 22 20 17 15 17 12
56 54 52 52 52 49 48 50 48 42 42 41 34 33 29 26 26 27 26 25 27 27 28 31 34 28 28 23 24 24 25 25 22 19 19 22 21 21 21 23 21 18 19 22 18 16 15 16 10
56 57 58 56 56 53 51 51 51 47 44 42 40 33 36 33 33 30 31 27 29 30 29 29 29 29 30 33 33 33 28 27 25 21 21 24 25 22 25 24 23 22 18 19 15 11 14 14 11
50 53 57 57 58 56 53 52 53 49 46 45 45 43 37 35 36 38 33 29 29 28 27 28 30 33 34 36 35 33 30 27 27 28 25 27 27 26 26 27 25 24 22 20 14 11 14 14 11
47 49 53 58 58 56 56 53 52 50 49 48 46 51 45 44 37 41 41 38 34 34 31 32 34 35 36 35 32 31 31 33 34 32 32 32 30 28 28 27 27 25 23 21 19 15 15 13 10
45 51 53 57 53 54 57 54 51 52 49 53 49 49 52 52 47 44 43 42 43 38 35 35 37 34 34 35 35 33 35 37 38 38 38 37 35 32 32 31 29 28 28 25 22 23 19 15 15
39 42 54 54 52 52 53 53 50 51 53 52 53 51 53 55 52 41 39 43 48 47 42 43 41 38 37 36 37 37 40 38 42 44 44 41 39 38 35 36 35 33 30 31 28 26 28 19 16
35 41 46 46 49 55 50 52 51 49 52 52 54 55 58 60 56 48 47 43 49 49 45 41 46 52 45 40 41 40 43 48 49 48 46 44 43 41 41 41 39 39 34 31 30 28 30 29 26
31 41 48 47 42 43 50 53 50 52 49 52 53 58 61 62 63 60 44 49 46 48 45 40 41 39 43 48 47 51 55 54 53 51 49 51 48 48 48 47 46 42 40 36 34 32 32 37 34
39 46 46 39 42 37 34 44 51 54 52 50 50 56 58 60 60 61 63 59 59 61 60 61 62 60 57 60 63 65 65 63 59 56 53 52 54 54 54 50 50 48 46 45 49 42 38 37 40
45 52 40 32 35 35 34 34 37 52 55 53 53 56 57 56 53 58 64 65 67 70 69 69 68 67 68 66 65 63 64 59 57 56 57 54 50 50 50 51 52 54 49 50 53 54 45 45 42
48 50 43 38 32 29 33 37 39 40 48 57 55 59 58 56 56 59 61 62 66 67 69 69 68 66 63 60 60 59 58 58 57 57 58 58 59 58 55 54 51 51 53 55 55 53 50 48 44
52 50 44 40 33 35 32 35 38 40 38 41 49 54 57 56 58 58 58 59 61 62 62 61 62 63 63 63 63 60 59 59 59 57 56 55 57 56 55 53 49 47 48 47 50 54 53 52 49
53 49 49 43 41 38 36 35 36 37 41 40 42 46 48 51 52 55 57 57 57 58 57 57 59 61 62 60 57 55 54 55 53 51 51 48 49 51 52 50 48 46 44 46 46 47 48 51 50
48 52 50 49 48 44 38 35 37 36 38 40 42 49 53 55 56 53 53 52 51 53 53 52 54 53 53 51 49 50 49 50 51 49 49 48 47 46 46 49 49 44 43 43 44 49 52 51 51
54 54 56 56 51 47 40 36 37 38 40 41 45 49 50 51 52 50 50 50 48 49 51 51 53 51 48 46 43 44 44 46 45 45 46 45 45 45 44 42 41 42 44 41 43 47 48 50 50
54 56 60 55 51 48 45 42 42 41 43 45 47 50 52 52 50 50 51 49 46 46 46 47 47 46 47 48 47 45 46 46 45 46 46 45 45 45 44 44 44 46 46 44 45 45 48 51 51
56 54 53 52 50 47 46 48 48 50 48 48 50 51 54 56 54 52 52 53 51 50 50 49 49 48 48 49 49 48 49 47 47 49 47 45 41 43 43 41 43 45 46 47 45 46 47 50 53
55 52 50 50 49 50 51 54 52 51 51 53 53 54 57 57 55 52 53 51 55 56 54 52 50 50 50 52 51 49 48 46 41 39 45 45 46 45 42 41 39 39 39 40 43 46 46 47 48
54 53 55 55 54 56 56 55 54 54 56 59 60 61 61 60 56 56 55 56 57 57 55 56 56 53 54 50 49 52 51 50 50 51 51 48 45 43 41 38 36 36 35 34 37 37 41 44 44
56 58 58 57 56 56 56 53 53 59 61 61 63 66 65 61 58 58 56 56 56 57 57 57 58 57 58 56 57 59 59 58 56 54 48 43 45 39 36 42 43 39 36 38 43 43 37 36 47
53 52 54 58 56 51 52 49 52 58 62 64 67 69 64 56 56 57 55 56 56 57 58 58 58 59 60 60 62 62 60 58 59 56 52 45 36 41 42 40 40 42 47 42 47 46 34 56 51
53 53 53 54 52 51 49 48 47 47 51 60 65 66 64 64 66 59 58 60 62 64 64 64 64 65 65 65 65 64 64 61 62 65 65 62 64 61 56 59 56 58 58 59 58 55 59 64 63
55 55 54 54 53 53 53 51 52 52 56 57 59 62 62 63 64 63 62 66 66 68 70 70 69 66 66 68 69 68 69 71 71 69 65 64 62 61 64 68 70 70 71 71 69 70 70 73 74
58 58 56 54 56 53 52 50 53 59 58 59 60 61 63 64 66 65 67 68 70 71 71 71 71 70 70 71 72 73 73 73 74 75 75 74 75 76 77 76 75 76 80 80 77 76 76 80 80
59 58 57 56 56 54 51 48 52 57 60 63 62 65 66 69 68 69 69 71 72 72 72 73 73 73 74 75 77 77 79 80 81 82 82 83 84 84 85 86 89 92 92 93 93 90 89 86 86
57 56 57 58 58 57 54 52 54 57 58 60 64 66 69 72 73 73 73 76 75 75 75 76 77 77 78 78 79 81 82 83 84 84 84 86 87 87 87 88 90 92 94 96 96 98 98 97 97
58 60 60 60 59 57 55 55 57 60 59 59 61 64 67 69 70 70 74 76 76 77 77 78 79 80 81 81 81 81 80 79 81 80 81 82 84 86 86 87 88 90 92 94 97 100 102 104 104
55 55 57 59 57 57 55 57 61 63 62 63 65 67 68 68 69 72 75 76 77 77 77 76 78 79 79 80 81 81 81 80 80 81 83 85 87 89 90 92 94 95 96 97 98 100 102 105 108
55 57 58 58 57 57 57 57 61 61 62 64 68 70 72 73 73 73 73 74 75 74 75 76 77 78 79 80 81 81 81 82 83 84 86 89 91 93 95 98 100 103 103 103 104 104 104 105 107
Wind_Direction
227 229 229 231 227 226 229 228 229 227 224 225 232 234 242 246 241 241 240 237 242 250 255 263 277 277 276 274 273 281 289 295 296 302 293 296 307 313 315 314 321 326 335 337 336 334 332 324 327
228 228 229 229 230 229 229 230 229 231 226 226 225 235 227 226 227 235 252 261 256 263 264 266 272 275 270 274 281 283 291 293 289 293 288 293 306 304 305 313 312 321 330 326 333 328 325 319 305
229 230 229 227 228 230 231 231 232 232 232 227 227 226 233 236 239 239 244 254 262 263 267 266 266 267 268 278 285 287 285 285 283 286 281 290 299 296 302 303 308 306 323 320 319 333 335 318 287
228 231 231 227 226 228 231 231 232 235 236 233 229 224 232 235 246 245 247 252 256 256 262 267 267 271 272 278 278 281 282 281 285 287 288 283 289 291 292 296 301 300 316 314 299 310 319 321 289
231 231 230 228 226 226 230 231 233 236 238 237 233 231 232 230 238 244 249 255 258 258 260 263 270 268 270 273 271 271 280 283 290 283 286 285 289 290 284 295 295 293 302 305 288 289 305 303 278
232 234 233 228 224 225 229 233 232 233 234 237 236 235 235 238 239 243 243 252 253 255 257 262 264 265 267 267 270 273 279 284 287 284 286 288 288 288 288 288 289 290 290 302 294 286 296 283 271
237 237 239 239 227 224 228 230 233 235 237 236 236 234 234 232 233 239 244 248 248 249 250 259 255 258 256 261 268 278 282 282 282 285 282 281 279 282 286 282 287 287 280 284 291 287 288 276 271
241 244 246 240 236 232 225 227 229 235 239 241 238 236 232 231 234 239 246 247 247 245 247 254 256 257 257 259 267 270 277 281 281 284 277 277 274 275 279 279 281 284 277 282 283 289 284 281 281
237 236 241 243 236 236 231 228 231 233 239 241 245 242 240 238 240 240 239 244 242 243 243 246 250 254 257 261 262 271 279 281 282 278 273 275 272 274 276 277 275 275 276 275 281 282 285 286 285
234 239 240 250 245 235 238 235 234 238 236 238 245 247 246 243 242 245 243 243 246 249 251 256 260 263 263 266 271 275 279 281 281 278 276 278 276 274 277 275 273 274 271 274 281 283 282 285 283
239 244 246 249 251 239 232 235 236 235 238 238 243 247 248 250 250 250 248 250 253 255 258 264 266 269 270 273 276 276 277 278 278 275 275 276 278 280 278 276 273 271 267 270 277 281 283 284 281
240 242 245 247 250 245 244 238 236 236 236 240 243 250 249 253 253 249 251 252 255 257 260 264 268 270 271 273 274 274 275 275 274 274 275 278 278 279 278 275 274 271 270 267 271 275 279 281 278
242 240 243 246 247 242 235 236 238 237 239 239 243 250 253 252 255 254 254 253 255 256 259 263 266 268 270 272 274 275 274 273 275 274 274 274 276 276 276 275 272 270 267 267 269 272 271 273 274
244 241 241 242 241 242 234 235 238 240 238 240 244 249 252 251 249 252 254 255 257 259 260 263 264 267 270 271 273 274 275 275 275 274 273 272 270 270 268 266 267 268 267 265 264 262 263 265 267
248 246 240 237 239 238 240 240 239 241 244 242 244 246 247 253 256 256 259 261 262 263 262 262 265 266 269 271 272 274 275 276 276 275 274 271 270 269 267 268 268 265 267 264 261 261 262 265 264
245 245 239 235 235 242 242 239 244 244 243 246 246 243 247 252 261 264 261 262 262 265 267 267 268 269 269 267 270 274 273 278 280 278 275 273 272 271 271 272 272 270 267 265 266 265 262 263 262
243 243 241 239 239 243 244 244 242 245 243 243 243 243 246 247 252 258 260 263 265 266 270 270 270 271 271 270 270 272 275 278 277 277 280 278 278 276 276 275 272 268 270 270 266 264 265 264 262
239 244 246 245 244 245 245 247 243 242 244 245 245 245 243 242 245 251 256 261 266 269 270 271 270 269 270 271 272 273 274 275 274 274 279 281 280 278 278 278 277 274 272 271 267 267 263 263 263
242 244 246 245 245 245 245 247 243 246 247 247 247 247 247 246 244 251 253 256 261 262 264 264 265 266 267 269 271 269 271 270 266 269 274 277 279 279 277 279 278 276 276 275 268 265 265 264 263
243 242 243 245 244 245 246 248 249 249 250 252 252 251 250 251 254 255 255 256 257 259 263 264 265 264 265 266 267 269 269 269 267 267 272 275 274 274 275 276 275 272 263 260 260 267 268 266 267
242 240 240 243 242 243 246 249 254 252 250 250 252 252 252 252 252 256 258 257 255 258 260 261 264 266 266 267 266 269 270 270 269 269 269 271 269 262 250 252 250 256 258 254 259 254 258 266 277
238 240 242 243 242 244 246 252 254 254 252 252 253 253 254 251 250 250 250 252 252 252 255 256 260 264 266 268 269 270 269 266 271 266 263 256 254 252 255 252 251 249 251 244 245 253 250 253 261
238 239 239 240 243 247 249 250 255 260 259 254 253 255 255 254 252 252 251 254 256 255 256 259 263 264 265 266 266 266 270 271 268 268 268 264 253 251 249 248 248 250 251 250 250 245 241 235 243
239 240 241 244 247 248 248 249 253 254 254 252 252 253 254 255 254 253 252 254 257 260 264 265 265 265 265 266 267 265 264 264 266 267 266 264 263 260 254 250 254 255 254 249 250 251 250 245 242
241 241 243 245 246 249 250 250 252 250 250 253 255 256 256 256 257 258 260 261 262 263 264 264 265 264 264 264 264 265 265 265 265 266 266 266 265 263 261 258 255 255 252 253 253 252 250 250 246
242 244 246 247 247 248 251 248 248 253 250 250 252 254 257 258 259 260 262 262 262 263 264 264 265 265 266 267 266 265 264 266 268 270 270 269 268 267 266 263 260 259 258 258 256 255 254 253 252
242 243 245 247 248 250 252 252 250 251 253 253 253 255 256 259 260 262 265 264 263 264 264 265 266 268 270 269 269 269 270 271 271 271 271 270 270 268 267 264 262 261 260 259 258 257 256 255 253
244 244 246 248 249 250 251 250 249 250 250 251 252 254 255 258 260 263 264 265 266 267 267 268 271 272 272 272 272 272 272 271 271 271 270 269 269 269 269 268 266 265 263 261 260 259 259 258 256
242 245 246 247 249 249 249 250 251 252 253 253 253 255 256 257 260 263 265 267 268 267 270 272 272 272 271 271 271 271 271 272 273 274 274 274 274 273 272 272 271 270 269 267 264 262 259 258 256
244 247 249 250 250 250 250 251 254 254 254 255 256 256 256 257 258 259 260 264 266 268 269 269 270 271 272 273 274 274 276 277 278 278 278 277 276 276 275 275 275 274 274 272 270 268 265 262 258
Height
10919 10923 10928 10933 10939 10943 10944 10948 10952 10956 10960 10963 10965 10968 10969 10970 10972 10974 10976 10978 10980 10984 10985 10985 10985 10986 10988 10989 10990 10990 10991 10992 10991 10990 10991 10991 10992 10991 10989 10988 10986 10984 10981 10980 10978 10976 10975 10973 10971
10913 10916 10921 10927 10932 10936 10939 10944 10948 10951 10956 10960 10963 10964 10967 10968 10969 10971 10973 10974 10976 10978 10981 10982 10983 10983 10984 10985 10987 10988 10988 10989 10989 10989 10988 10988 10988 10988 10987 10985 10984 10982 10981 10979 10977 10975 10973 10971 10970
10906 10910 10914 10920 10926 10930 10935 10939 10942 10948 10952 10956 10959 10960 10962 10963 10964 10967 10968 10970 10972 10973 10976 10977 10979 10980 10981 10982 10983 10984 10985 10985 10986 10986 10986 10985 10986 10986 10984 10983 10982 10980 10979 10977 10975 10974 10972 10969 10969
10901 10903 10908 10913 10919 10924 10930 10936 10939 10943 10948 10951 10954 10956 10958 10959 10960 10962 10964 10965 10967 10969 10971 10973 10975 10976 10977 10978 10978 10979 10980 10981 10982 10982 10982 10983 10982 10982 10982 10980 10979 10978 10976 10974 10973 10972 10970 10968 10966
10895 10897 10899 10906 10913 10919 10924 10929 10935 10939 10941 10941 10946 10949 10953 10955 10955 10956 10959 10960 10962 10964 10965 10968 10970 10972 10973 10973 10973 10973 10974 10976 10976 10976 10977 10977 10978 10978 10978 10977 10976 10975 10973 10972 10970 10969 10968 10967 10965
10888 10890 10891 10898 10908 10915 10918 10925 10929 10931 10934 10933 10939 10942 10948 10949 10949 10952 10954 10955 10956 10957 10959 10962 10965 10967 10967 10968 10969 10969 10969 10970 10971 10971 10971 10972 10972 10973 10973 10972 10972 10971 10970 10968 10967 10968 10965 10963 10963
10881 10884 10883 10893 10903 10907 10913 10917 10920 10926 10924 10927 10934 10936 10938 10941 10943 10945 10948 10949 10950 10951 10954 10957 10959 10960 10961 10962 10963 10964 10965 10965 10965 10965 10965 10965 10966 10967 10967 10967 10967 10967 10965 10963 10963 10965 10962 10960 10959
10876 10878 10875 10882 10894 10900 10907 10910 10914 10917 10918 10923 10922 10925 10927 10930 10934 10938 10942 10943 10943 10945 10947 10950 10952 10953 10954 10954 10956 10956 10958 10959 10959 10958 10958 10958 10960 10961 10961 10961 10961 10961 10959 10957 10957 10959 10958 10957 10956
10871 10868 10863 10874 10886 10893 10901 10907 10907 10910 10911 10913 10913 10910 10915 10922 10929 10935 10935 10934 10936 10938 10941 10942 10943 10945 10946 10947 10947 10948 10948 10949 10950 10950 10950 10950 10951 10953 10955 10955 10955 10956 10953 10951 10950 10952 10953 10950 10950
10862 10855 10860 10873 10879 10890 10896 10900 10903 10902 10904 10906 10901 10901 10907 10915 10923 10926 10928 10926 10927 10930 10932 10934 10936 10938 10938 10938 10939 10939 10939 10939 10939 10940 10940 10941 10941 10943 10945 10947 10947 10948 10947 10944 10941 10943 10944 10946 10945
10850 10845 10860 10868 10872 10882 10889 10891 10893 10895 10894 10896 10896 10894 10898 10906 10914 10917 10918 10919 10921 10922 10924 10926 10927 10927 10928 10929 10929 10929 10929 10929 10928 10929 10930 10930 10931 10932 10934 10936 10937 10937 10938 10935 10933 10932 10935 10936 10938
10841 10843 10854 10860 10868 10875 10880 10883 10884 10885 10889 10890 10891 10887 10893 10897 10901 10904 10904 10910 10913 10914 10915 10915 10915 10915 10916 10917 10918 10918 10919 10919 10920 10920 10920 10920 10920 10921 10923 10925 10926 10926 10927 10926 10923 10923 10924 10927 10928
10831 10838 10846 10853 10860 10864 10870 10873 10876 10879 10882 10883 10884 10882 10885 10886 10887 10891 10895 10900 10903 10904 10904 10906 10906 10906 10908 10908 10907 10907 10908 10908 10909 10909 10910 10910 10909 10910 10911 10913 10915 10915 10916 10916 10913 10913 10915 10915 10918
10822 10833 10836 10844 10847 10853 10860 10866 10868 10872 10875 10878 10877 10875 10875 10873 10876 10880 10884 10890 10893 10893 10897 10897 10896 10895 10897 10898 10897 10896 10895 10896 10896 10897 10899 10899 10899 10899 10899 10900 10902 10904 10905 10907 10906 10904 10905 10906 10909
10817 10820 10827 10831 10834 10842 10853 10858 10860 10866 10867 10868 10868 10866 10865 10864 10866 10872 10875 10878 10882 10881 10886 10887 10886 10887 10888 10888 10887 10886 10885 10884 10886 10887 10888 10889 10889 10890 10890 10890 10892 10894 10896 10897 10897 10897 10896 10897 10898
10805 10808 10813 10817 10826 10833 10846 10851 10851 10856 10857 10859 10858 10856 10855 10856 10858 10864 10865 10865 10871 10871 10874 10877 10876 10878 10880 10880 10879 10878 10877 10877 10878 10877 10878 10879 10879 10880 10881 10883 10884 10885 10887 10888 10889 10888 10888 10887 10888
10792 10794 10800 10812 10820 10826 10835 10840 10841 10843 10846 10848 10849 10848 10848 10848 10851 10854 10853 10855 10859 10861 10863 10864 10867 10867 10868 10868 10868 10868 10868 10869 10869 10868 10868 10870 10871 10873 10874 10875 10876 10875 10876 10879 10879 10878 10878 10877 10877
10782 10788 10796 10806 10812 10818 10823 10824 10827 10829 10832 10834 10838 10839 10840 10840 10843 10845 10846 10845 10847 10850 10850 10851 10853 10857 10857 10857 10857 10859 10859 10859 10858 10856 10860 10862 10863 10863 10865 10866 10865 10865 10866 10867 10867 10867 10867 10867 10867
10777 10785 10790 10795 10800 10803 10807 10808 10816 10819 10821 10822 10824 10825 10826 10829 10834 10839 10838 10839 10838 10837 10837 10838 10841 10843 10845 10846 10847 10848 10850 10851 10850 10848 10850 10853 10853 10853 10854 10856 10858 10859 10858 10856 10855 10855 10855 10856 10857
10769 10774 10777 10781 10787 10789 10794 10799 10805 10809 10809 10808 10808 10810 10813 10818 10826 10828 10828 10830 10828 10828 10829 10827 10827 10830 10831 10835 10836 10834 10839 10841 10841 10841 10843 10843 10845 10844 10844 10846 10846 10848 10848 10847 10847 10846 10847 10846 10847
10756 10760 10764 10767 10772 10777 10782 10789 10792 10793 10794 10795 10795 10793 10798 10808 10813 10816 10819 10820 10819 10818 10819 10819 10817 10819 10819 10822 10823 10822 10826 10829 10830 10831 10833 10836 10836 10835 10833 10834 10832 10834 10834 10835 10837 10836 10837 10837 10835
10743 10749 10752 10755 10761 10767 10772 10779 10777 10779 10781 10782 10780 10777 10787 10796 10799 10802 10804 10804 10807 10808 10808 10806 10807 10807 10806 10807 10808 10808 10811 10814 10815 10816 10820 10822 10822 10821 10820 10819 10818 10818 10820 10820 10821 10823 10825 10825 10820
10732 10737 10740 10744 10750 10755 10762 10765 10768 10767 10768 10764 10763 10766 10776 10780 10783 10789 10789 10787 10789 10791 10796 10795 10795 10794 10793 10793 10794 10794 10795 10795 10797 10799 10803 10806 10806 10805 10806 10805 10804 10806 10803 10806 10805 10804 10802 10800 10799
10722 10727 10730 10735 10740 10744 10748 10753 10755 10756 10753 10753 10753 10754 10759 10762 10767 10772 10775 10774 10774 10777 10778 10779 10780 10782 10780 10779 10778 10781 10783 10782 10781 10783 10784 10786 10788 10789 10789 10789 10788 10788 10787 10787 10787 10789 10788 10785 10785
10709 10713 10719 10725 10728 10732 10735 10740 10743 10740 10741 10741 10743 10744 10744 10747 10748 10753 10758 10760 10758 10759 10760 10759 10761 10763 10764 10764 10764 10764 10765 10766 10765 10766 10767 10767 10769 10771 10771 10770 10770 10769 10769 10769 10769 10768 10768 10769 10769
10698 10702 10708 10713 10715 10720 10724 10732 10729 10725 10728 10729 10731 10731 10731 10730 10735 10736 10739 10740 10739 10740 10742 10742 10743 10743 10743 10744 10745 10745 10745 10747 10748 10749 10748 10747 10747 10747 10748 10747 10746 10747 10747 10747 10747 10746 10747 10747 10748
10686 10689 10692 10697 10702 10708 10714 10718 10717 10714 10713 10715 10717 10718 10716 10715 10718 10720 10721 10718 10721 10722 10724 10723 10723 10724 10724 10723 10724 10725 10726 10727 10727 10727 10726 10722 10721 10720 10720 10720 10720 10720 10720 10719 10720 10721 10721 10721 10723
10674 10674 10681 10684 10690 10697 10702 10704 10701 10699 10702 10703 10702 10702 10702 10701 10703 10703 10699 10697 10699 10701 10703 10704 10705 10706 10705 10704 10703 10702 10702 10703 10701 10701 10700 10697 10696 10694 10692 10691 10691 10692 10692 10692 10692 10692 10693 10693 10693
10659 10663 10666 10669 10678 10682 10688 10689 10684 10685 10689 10690 10689 10688 10688 10689 10690 10686 10682 10679 10680 10684 10684 10685 10683 10683 10682 10682 10681 10681 10681 10680 10677 10675 10673 10671 10669 10669 10668 10665 10663 10662 10662 10662 10661 10660 10661 10660 10660
10648 10650 10652 10656 10661 10667 10671 10671 10670 10671 10671 10672 10671 10672 10673 10672 10673 10671 10668 10666 10663 10665 10664 10663 10662 10660 10660 10660 10660 10658 10658 10656 10654 10652 10649 10646 10643 10642 10640 10637 10633 10630 10629 10627 10625 10626 10625 10625 10624